This is the latest recevied weather packets stored in our database for station/object KY4EF. If no packets are shown the sender has not sent any weather packets the latest 10 day(s).
| Time | Temp. | Humidity | Pressure | Rain* | Wind** | Luminosity | Snow |
|---|---|---|---|---|---|---|---|
| 1777772284 | 7.78° C | 74% | 1014.5 hPa | 0 mm | - | 0 W/m² | - |
| 1777771982 | 7.78° C | 71% | 1014.4 hPa | 0 mm | - | 0 W/m² | - |
| 1777771678 | 8.33° C | 71% | 1014.5 hPa | 0 mm | - | 0 W/m² | - |
| 1777771375 | 8.89° C | 71% | 1014.3 hPa | 0 mm | - | 0 W/m² | - |
| 1777771072 | 8.89° C | 65% | 1014 hPa | 0 mm | - | 0 W/m² | - |
| 1777770769 | 8.89° C | 65% | 1014.1 hPa | 0 mm | - | 0 W/m² | - |
| 1777770465 | 9.44° C | 64% | 1013.9 hPa | 0 mm | - | 0 W/m² | - |
| 1777770162 | 9.44° C | 64% | 1014.1 hPa | 0 mm | - | 0 W/m² | - |
| 1777769860 | 9.44° C | 63% | 1014 hPa | 0 mm | - | 0 W/m² | - |
| 1777769557 | 9.44° C | 64% | 1013.5 hPa | 0 mm | - | 0 W/m² | - |
| 1777769253 | 10° C | 61% | 1013.9 hPa | 0 mm | - | 0 W/m² | - |
| 1777768951 | 10° C | 60% | 1013.5 hPa | 0 mm | - | 0 W/m² | - |
| 1777768648 | 10° C | 59% | 1013.4 hPa | 0 mm | - | 0 W/m² | - |
| 1777768345 | 10.56° C | 55% | 1013.4 hPa | 0 mm | - | 1 W/m² | - |
| 1777768042 | 11.11° C | 55% | 1013.5 hPa | 0 mm | - | 1 W/m² | - |
| 1777767739 | 11.67° C | 53% | 1013.4 hPa | 0 mm | - | 2 W/m² | - |
| 1777767435 | 11.67° C | 50% | 1013.1 hPa | 0 mm | - | 4 W/m² | - |
| 1777767131 | 11.67° C | 47% | 1013.1 hPa | 0 mm | - | 5 W/m² | - |
| 1777766830 | 12.22° C | 48% | 1013.1 hPa | 0 mm | - | 7 W/m² | - |
| 1777766527 | 12.22° C | 48% | 1013.2 hPa | 0 mm | - | 10 W/m² | - |
| 1777766223 | 12.22° C | 47% | 1012.9 hPa | 0 mm | - | 12 W/m² | - |
| 1777765921 | 12.78° C | 45% | 1013.1 hPa | 0 mm | - | 15 W/m² | - |
| 1777765618 | 12.78° C | 45% | 1012.8 hPa | 0 mm | - | 17 W/m² | - |
| 1777765315 | 12.78° C | 45% | 1012.8 hPa | 0 mm | - | 21 W/m² | - |
| 1777765011 | 12.78° C | 45% | 1012.7 hPa | 0 mm | - | 22 W/m² | - |
* Rain latest hour (hover to see other rain measurements)
** Current wind speed in m/s (hover to see current wind gust speed)